NOAA 16 DEB

Satellite information

Favourite Embed

Satellite Type and Status

DEBRISIN ORBIT

Key statistics

Satellite NOAA 16 DEB at a glance.

Uptime

9056

Days in orbit

Revolutions

≈ 14.7

Per day

Orbit

SSO

Sun Synchronous Orbit

Inclination

98.9

Latest

Satellite identification and parameters

Extended collection of information and parameters for NOAA 16 DEB.

Object identification

Identified? True

Debris? True

Object name: NOAA 16 DEB

International designator: 2000-055JG

Object number (NORAD): 41363

Object ID (CCSDS): 41363

Country: UNITED STATES OF AMERICA (US)

Current information (Y/N): Y

RCS size: SMALL

Orbital parameters

Period: 98.235 minutes

Inclination: 98.9109 deg

SMA: 7052.409 km

Apoapsis: 685.646 km

Periapsis: 662.901 km

RAAN: 0.2542 deg

Eccentricy: 0.0016126

Argument of periapsis: 31.8111 deg

Mean anomaly: 328.4061 deg

Mean motion: 14.65873692 rev/day

Mean motion (dot): 0.00015425 rev/day2

B* drag term: 0.002822 1/REarth

Two-line elements (TLE)

Creation date: July 6, 2025, 6:05 p.m.

Reference frame: TEME

Reference center: EARTH

Epoch: July 6, 2025, 7:34 a.m. UTC

TLE line 0: 0 NOAA 16 DEB

TLE line 1: 1 41363U 00055JG 25187.31539413 .00015425 00000-0 28220-2 0 9992

TLE line 2: 2 41363 98.9109 0.2542 0016126 31.8111 328.4061 14.65873692490030

Live tracking on map

Real-time ground track for satellite NOAA 16 DEB.

In-orbit conjunctions

A list of the most updated potential collisions computed for object NOAA 16 DEB.

Target Orbit TCA Probability of collision Miss distance Type
COSMOS 2251 DEB LEO 2024-11-11 19:36:31 0.0005930623 440.0 (m) DEBRIS
FENGYUN 1C DEB SSO 2024-11-10 18:51:11 0.0009510174 274.0 (m) DEBRIS

Associated space launch

The NOAA K, L and M POES satellites begin the fifth generation of improved environmental monitoring in support of NOAA missions. The instrument payload has significant improvements and additions/deletions. The instrument changes have effected the spacecraft subsystems and data formats.

NOAA 16 DEB was lifted into orbit during the mission ‘Titan II SLV | NOAA 16’, on board a Titan II SLV space rocket.

The launch took place on Sept. 21, 2000, 10:22 a.m. from Space Launch Complex 4W.

For more information about the launch, click the button.

Launch to space Titan II SLV | NOAA 16
Titan II SLV | NOAA 16

Agency: N/A

Status: Launch Successful

Launch date: Sept. 21, 2000, 10:22 a.m. UTC

Rocket: Titan II SLV

Launch pad: Space Launch Complex 4W

Location: Vandenberg SFB, CA, USA

...

Latest news about this satellite

There are no fresh news available about this satellite. Check back as we update our databases every day.


Newsletter sign-up

Weekly statistics, charts and insights to help you stay on top of the space industry.